Content
SEND FEEDBACK

Daily
Averages
Monthly
Summary
United States of America

ROCK HILL, NEW YORK


Home > North America > United States > New York
Elevation: 384 meters     Latitude: 41 35N     Longitude: 074 37W

WEATHER
 
SELECT A DAY
Number of Records: 443,705;   Date Range: 1/1/95 - 8/28/14
 
SHARE

PRINT THIS DATA

[ ← Previous Day ]
WEATHER ALMANAC - 23 OCTOBER, 2013
[ Next Day → ]
[ °F ]   °C
Weather ElementAverageHighLow
Temperature3.2 °C9 °C (1:35 pm)-1 °C (4:55 am)
Dewpoint-2.2 °C0 °C (11:15 am)-4 °C (1:35 am)
Humidity69.6 %86 % (7:15 am)43 % (1:35 pm)
Barometer1006.8 hPa1010.2 hPa (12:35 am)1003.7 hPa (1:55 pm)
Wind Speed7.1 km/h18.5 km/h (5:35 pm)
Wind Gust25.9 km/h (5:35 pm)
Weather ElementAverage
Visibility16.1 km
Wind DirectionSSE (173 °)

Weather ElementTotal
Precipitation---
Heating Degree Days14.3 (Base 18.3)
Averaged from 71 records on 23 October, 2013
WEATHER CONDITIONS BREAKOUT
WIND DIRECTION BREAKOUT
WEATHER BY HOUR - 23 OCTOBER, 2013
[ °F ]   °C
Local TimeTemperatureDewpointHumidityBarometerVisibilityWind DirectionWind SpeedGust SpeedPrecipitationEventsConditions
12:35 AM3 °C-3 °C65 %1010.2 hPa16.1 kmWest (280°)9.3 km/hClear
12:55 AM3 °C-3 °C65 %1010.2 hPa16.1 kmWest (280°)11.1 km/hClear
1:15 AM3 °C-3 °C65 %1009.8 hPa16.1 kmWNW (290°)11.1 km/hClear
1:35 AM2 °C-4 °C65 %1009.8 hPa16.1 kmNW (310°)13 km/hClear
1:55 AM1 °C-4 °C70 %1009.8 hPa16.1 kmCalmClear
2:15 AM1 °C-3 °C75 %1009.5 hPa16.1 kmCalmClear
2:35 AM1 °C-3 °C75 %1009.5 hPa16.1 kmNNW (330°)9.3 km/hClear
2:55 AM1 °C-3 °C75 %1009.1 hPa16.1 kmCalmClear
3:15 AM1 °C-3 °C75 %1008.5 hPa16.1 kmNNW (340°)5.6 km/hClear
3:35 AM1 °C-3 °C75 %1008.5 hPa16.1 kmCalmClear
3:55 AM1 °C-3 °C75 %1008.5 hPa16.1 kmSW (230°)5.6 km/hClear
4:15 AM0 °C-4 °C75 %1008.5 hPa16.1 kmWSW (240°)5.6 km/hClear
4:35 AM0 °C-4 °C75 %1008.5 hPa16.1 kmCalmPartly Cloudy
4:55 AM-1 °C-4 °C80 %1008.1 hPa16.1 kmCalmClear
5:15 AM-1 °C-4 °C80 %1008.1 hPa16.1 kmCalmClear
5:35 AM-1 °C-4 °C80 %1008.1 hPa16.1 kmCalmClear
5:55 AM-1 °C-4 °C80 %1007.8 hPa16.1 kmCalmClear
6:15 AM-1 °C-4 °C80 %1008.1 hPa16.1 kmCalmClear
6:35 AM-1 °C-4 °C80 %1007.8 hPa16.1 kmNorth (360°)7.4 km/hClear
6:55 AM-1 °C-4 °C80 %1007.8 hPa16.1 kmCalmClear
7:15 AM-1 °C-3 °C86 %1007.8 hPa16.1 kmNorth (10°)5.6 km/hMostly Cloudy
7:35 AM-1 °C-3 °C86 %1007.8 hPa16.1 kmCalmMostly Cloudy
7:55 AM-1 °C-3 °C86 %1008.1 hPa16.1 kmCalmMostly Cloudy
8:15 AM0 °C-3 °C80 %1008.1 hPa16.1 kmCalmOvercast
8:35 AM1 °C-2 °C81 %1008.1 hPa16.1 kmCalmOvercast
8:55 AM1 °C-2 °C81 %1008.1 hPa16.1 kmCalmOvercast
9:15 AM1 °C-2 °C81 %1008.1 hPa16.1 kmCalmOvercast
9:35 AM1 °C-2 °C81 %1007.8 hPa16.1 kmCalmOvercast
9:55 AM2 °C-1 °C81 %1007.8 hPa16.1 kmCalmOvercast
10:15 AM3 °C-1 °C75 %1007.5 hPa16.1 kmCalmOvercast
10:35 AM3 °C-1 °C75 %1007.5 hPa16.1 kmCalmOvercast
10:55 AM4 °C-1 °C70 %1007.5 hPa16.1 kmNW (310°)5.6 km/hOvercast
11:15 AM6 °C0 °C66 %1007.1 hPa16.1 kmNorth (10°)9.3 km/hMostly Cloudy
11:35 AM6 °C-1 °C61 %1006.8 hPa16.1 kmCalmScattered Clouds
11:55 AM6 °C-1 °C61 %1006.4 hPa16.1 kmCalmMostly Cloudy
12:15 PM7 °C-1 °C57 %1006.1 hPa16.1 kmCalmScattered Clouds
12:35 PM8 °C-2 °C50 %1005.8 hPa16.1 kmCalmClear
12:55 PM8 °C-3 °C46 %1004.7 hPa16.1 kmENE (60°)5.6 km/hPartly Cloudy
1:15 PM8 °C-3 °C46 %1004.1 hPa16.1 kmCalmMostly Cloudy
1:35 PM9 °C-3 °C43 %1004.1 hPa16.1 kmNW (320°)11.1 km/hScattered Clouds
1:55 PM9 °C-3 °C43 %1003.7 hPa16.1 kmNW (320°)9.3 km/hMostly Cloudy
2:15 PM8 °C-3 °C46 %1003.7 hPa16.1 kmWNW (300°)11.1 km/hOvercast
2:35 PM8 °C-3 °C46 %1004.1 hPa16.1 kmWest (270°)14.8 km/hOvercast
2:55 PM8 °C-3 °C46 %1004.1 hPa16.1 kmWest (270°)14.8 km/hOvercast
3:15 PM7 °C-4 °C46 %1004.4 hPa16.1 kmWNW (290°)13 km/hOvercast
3:35 PM6 °C-2 °C57 %1004.7 hPa16.1 kmWest (270°)13 km/hOvercast
3:55 PM6 °C0 °C66 %1004.7 hPa16.1 kmWNW (290°)14.8 km/hOvercast
4:15 PM5 °C-1 °C65 %1004.7 hPa16.1 kmWest (280°)14.8 km/hMostly Cloudy
4:35 PM5 °C-1 °C65 %1004.7 hPa16.1 kmWNW (290°)14.8 km/hMostly Cloudy
4:55 PM5 °C-1 °C65 %1004.7 hPa16.1 kmWNW (300°)11.1 km/hMostly Cloudy
5:15 PM5 °C-1 °C65 %1004.7 hPa16.1 kmWNW (300°)11.1 km/hPartly Cloudy
5:35 PM5 °C-1 °C65 %1004.7 hPa16.1 kmWNW (290°)18.5 km/h25.9 km/hClear
5:55 PM4 °C-1 °C70 %1004.7 hPa16.1 kmWNW (300°)14.8 km/hClear
6:15 PM4 °C-1 °C70 %1005.1 hPa16.1 kmWNW (300°)11.1 km/hPartly Cloudy
6:35 PM4 °C-1 °C70 %1005.1 hPa16.1 kmWNW (300°)11.1 km/hClear
6:55 PM4 °C-1 °C70 %1005.4 hPa16.1 kmWNW (290°)11.1 km/hClear
7:15 PM4 °C-1 °C70 %1005.4 hPa16.1 kmWNW (300°)14.8 km/hPartly Cloudy
7:35 PM4 °C-1 °C70 %1005.8 hPa16.1 kmWNW (300°)13 km/hPartly Cloudy
7:55 PM4 °C-1 °C70 %1005.8 hPa16.1 kmWNW (290°)13 km/hClear
8:15 PM4 °C-1 °C70 %1005.8 hPa16.1 kmWNW (290°)13 km/hClear
8:35 PM3 °C-1 °C75 %1006.1 hPa16.1 kmWest (280°)7.4 km/hClear
8:55 PM3 °C-2 °C70 %1006.1 hPa16.1 kmWest (270°)9.3 km/hClear
9:15 PM3 °C-1 °C75 %1006.4 hPa16.1 kmWest (280°)7.4 km/hScattered Clouds
9:35 PM3 °C-1 °C75 %1006.4 hPa16.1 kmWest (280°)13 km/hMostly Cloudy
9:55 PM3 °C-1 °C75 %1006.8 hPa16.1 kmWest (280°)14.8 km/hScattered Clouds
10:15 PM3 °C-1 °C75 %1007.1 hPa16.1 kmWest (270°)13 km/hScattered Clouds
10:35 PM3 °C-1 °C75 %1007.1 hPa16.1 kmWest (280°)13 km/hPartly Cloudy
10:55 PM3 °C-1 °C75 %1007.5 hPa16.1 kmWNW (290°)14.8 km/hPartly Cloudy
11:15 PM3 °C-1 °C75 %1007.5 hPa16.1 kmWNW (290°)14.8 km/hMostly Cloudy
11:35 PM3 °C-2 °C70 %1007.5 hPa16.1 kmWest (270°)7.4 km/hPartly Cloudy
11:55 PM2 °C-1 °C81 %1007.8 hPa16.1 kmWest (280°)11.1 km/hScattered Clouds
Hourly data recorded from KMSV, located 0 kilometers away from Rock Hill, New York







STORIES FROM OUR PARTNERS